owner,sensor,date,latitude,longitude,vertical_datum,wind_speed,wind_to_direction,wind_speed_of_gust,qcFlag 
COMPS,ioos:station:USF.COMPS:C12:1,2019-04-01T00:05:00Z,27.4980,-83.7220,3.0,2.66,244.06,3.17,'1111122,1111122,1111122' 
COMPS,ioos:station:USF.COMPS:C12:1,2019-04-01T00:35:00Z,27.4980,-83.7220,3.0,2.35,282.74,2.79,'1111122,1111122,1111122' 
COMPS,ioos:station:USF.COMPS:C12:1,2019-04-01T01:05:00Z,27.4980,-83.7220,3.0,8.97,326.75,10.73,'1111122,1111122,1111122' 
COMPS,ioos:station:USF.COMPS:C12:1,2019-04-01T01:35:00Z,27.4980,-83.7220,3.0,8.56,337.1,10.34,'1111122,1111122,1111122' 
COMPS,ioos:station:USF.COMPS:C12:1,2019-04-01T02:05:00Z,27.4980,-83.7220,3.0,4.2,332.66,7.76,'1111122,1111122,1111122' 
COMPS,ioos:station:USF.COMPS:C12:1,2019-04-01T02:35:00Z,27.4980,-83.7220,3.0,4.22,23.75,5.29,'1111122,1111122,1111122' 
COMPS,ioos:station:USF.COMPS:C12:1,2019-04-01T03:05:00Z,27.4980,-83.7220,3.0,3.94,43.62,4.62,'1111122,1111122,1111122' 
COMPS,ioos:station:USF.COMPS:C12:1,2019-04-01T03:35:00Z,27.4980,-83.7220,3.0,2.5,48.61,3.4,'1111122,1111122,1111122' 
COMPS,ioos:station:USF.COMPS:C12:1,2019-04-01T04:05:00Z,27.4980,-83.7220,3.0,1.41,58.77,2.14,'1111122,1111122,1111122' 
COMPS,ioos:station:USF.COMPS:C12:1,2019-04-01T04:35:00Z,27.4980,-83.7220,3.0,1.37,349.04,1.67,'1111122,1111122,1111122' 
COMPS,ioos:station:USF.COMPS:C12:1,2019-04-01T05:05:00Z,27.4980,-83.7220,3.0,0.85,330.87,1.43,'1111122,1111122,1111122' 
COMPS,ioos:station:USF.COMPS:C12:1,2019-04-01T05:35:00Z,27.4980,-83.7220,3.0,1.67,318.77,2.02,'1111122,1111122,1111122' 
COMPS,ioos:station:USF.COMPS:C12:1,2019-04-01T06:05:00Z,27.4980,-83.7220,3.0,3.18,334.68,3.83,'1111122,1111122,1111122' 
COMPS,ioos:station:USF.COMPS:C12:1,2019-04-01T06:35:00Z,27.4980,-83.7220,3.0,4.09,339.96,4.72,'1111122,1111122,1111122' 
COMPS,ioos:station:USF.COMPS:C12:1,2019-04-01T07:05:00Z,27.4980,-83.7220,3.0,2.85,355.35,3.7,'1111122,1111122,1111122' 
COMPS,ioos:station:USF.COMPS:C12:1,2019-04-01T07:35:00Z,27.4980,-83.7220,3.0,3.18,339.38,4.67,'1111122,1111122,1111122' 
COMPS,ioos:station:USF.COMPS:C12:1,2019-04-01T08:05:00Z,27.4980,-83.7220,3.0,2.31,346.72,3.49,'1111122,1111122,1111122' 
COMPS,ioos:station:USF.COMPS:C12:1,2019-04-01T08:35:00Z,27.4980,-83.7220,3.0,4.12,351.34,4.78,'1111122,1111122,1111122' 
COMPS,ioos:station:USF.COMPS:C12:1,2019-04-01T09:05:00Z,27.4980,-83.7220,3.0,6.17,7.8,7.45,'1111122,1111122,1111122' 
COMPS,ioos:station:USF.COMPS:C12:1,2019-04-01T09:35:00Z,27.4980,-83.7220,3.0,6.34,32.66,7.69,'1111122,1111122,1111122' 
COMPS,ioos:station:USF.COMPS:C12:1,2019-04-01T10:05:00Z,27.4980,-83.7220,3.0,5.96,33.0,7.17,'1111122,1111122,1111122' 
COMPS,ioos:station:USF.COMPS:C12:1,2019-04-01T10:35:00Z,27.4980,-83.7220,3.0,5.65,40.23,6.98,'1111122,1111122,1111122' 
COMPS,ioos:station:USF.COMPS:C12:1,2019-04-01T11:05:00Z,27.4980,-83.7220,3.0,4.51,35.71,5.8,'1111122,1111122,1111122' 
COMPS,ioos:station:USF.COMPS:C12:1,2019-04-01T11:35:00Z,27.4980,-83.7220,3.0,4.09,51.61,5.48,'1111122,1111122,1111122' 
COMPS,ioos:station:USF.COMPS:C12:1,2019-04-01T12:05:00Z,27.4980,-83.7220,3.0,4.7,55.18,6.15,'1111122,1111122,1111122' 
COMPS,ioos:station:USF.COMPS:C12:1,2019-04-01T12:35:00Z,27.4980,-83.7220,3.0,5.88,41.65,7.09,'1111122,1111122,1111122' 
COMPS,ioos:station:USF.COMPS:C12:1,2019-04-01T13:05:00Z,27.4980,-83.7220,3.0,6.1,35.58,7.14,'1111122,1111122,1111122' 
COMPS,ioos:station:USF.COMPS:C12:1,2019-04-01T13:35:00Z,27.4980,-83.7220,3.0,6.27,38.81,7.99,'1111122,1111122,1111122' 
COMPS,ioos:station:USF.COMPS:C12:1,2019-04-01T14:05:00Z,27.4980,-83.7220,3.0,-99.0,-99.0,-99.0,'1111122,1111122,1111122' 
COMPS,ioos:station:USF.COMPS:C12:1,2019-04-01T14:35:00Z,27.4980,-83.7220,3.0,-99.0,-99.0,-99.0,'1111122,1111122,1111122' 
COMPS,ioos:station:USF.COMPS:C12:1,2019-04-01T15:05:00Z,27.4980,-83.7220,3.0,6.63,23.21,7.84,'1111122,1111122,1111122' 
COMPS,ioos:station:USF.COMPS:C12:1,2019-04-01T15:35:00Z,27.4980,-83.7220,3.0,7.18,26.23,8.79,'1111122,1111122,1111122' 
COMPS,ioos:station:USF.COMPS:C12:1,2019-04-01T16:05:00Z,27.4980,-83.7220,3.0,7.4,32.18,9.04,'1111122,1111122,1111122' 
COMPS,ioos:station:USF.COMPS:C12:1,2019-04-01T16:35:00Z,27.4980,-83.7220,3.0,7.59,22.81,9.04,'1111122,1111122,1111122' 
COMPS,ioos:station:USF.COMPS:C12:1,2019-04-01T17:05:00Z,27.4980,-83.7220,3.0,7.35,22.22,8.76,'1111122,1111122,1111122' 
COMPS,ioos:station:USF.COMPS:C12:1,2019-04-01T17:35:00Z,27.4980,-83.7220,3.0,6.57,31.08,7.8,'1111122,1111122,1111122' 
COMPS,ioos:station:USF.COMPS:C12:1,2019-04-01T18:05:00Z,27.4980,-83.7220,3.0,6.24,66.8,7.48,'1111122,1111122,1111122' 
COMPS,ioos:station:USF.COMPS:C12:1,2019-04-01T18:35:00Z,27.4980,-83.7220,3.0,7.4,72.93,8.84,'1111122,1111122,1111122' 
COMPS,ioos:station:USF.COMPS:C12:1,2019-04-01T19:05:00Z,27.4980,-83.7220,3.0,6.92,100.8,8.75,'1111122,1111122,1111122' 
COMPS,ioos:station:USF.COMPS:C12:1,2019-04-01T19:35:00Z,27.4980,-83.7220,3.0,6.28,114.59,8.65,'1111122,1111122,1111122' 
COMPS,ioos:station:USF.COMPS:C12:1,2019-04-01T20:05:00Z,27.4980,-83.7220,3.0,4.73,98.94,6.04,'1111122,1111122,1111122' 
COMPS,ioos:station:USF.COMPS:C12:1,2019-04-01T20:35:00Z,27.4980,-83.7220,3.0,4.74,108.62,6.44,'1111122,1111122,1111122' 
COMPS,ioos:station:USF.COMPS:C12:1,2019-04-01T21:05:00Z,27.4980,-83.7220,3.0,4.23,109.55,5.72,'1111122,1111122,1111122' 
COMPS,ioos:station:USF.COMPS:C12:1,2019-04-01T21:35:00Z,27.4980,-83.7220,3.0,3.23,103.86,4.28,'1111122,1111122,1111122' 
COMPS,ioos:station:USF.COMPS:C12:1,2019-04-01T22:05:00Z,27.4980,-83.7220,3.0,2.8,105.66,3.64,'1111122,1111122,1111122' 
COMPS,ioos:station:USF.COMPS:C12:1,2019-04-01T22:35:00Z,27.4980,-83.7220,3.0,2.9,115.61,3.87,'1111122,1111122,1111122' 
COMPS,ioos:station:USF.COMPS:C12:1,2019-04-01T23:05:00Z,27.4980,-83.7220,3.0,1.97,116.53,3.2,'1111122,1111122,1111122' 
COMPS,ioos:station:USF.COMPS:C12:1,2019-04-01T23:35:00Z,27.4980,-83.7220,3.0,1.92,114.27,2.84,'1111122,1111122,1111122' 
COMPS,ioos:station:USF.COMPS:C12:1,2019-04-02T00:05:00Z,27.4980,-83.7220,3.0,2.4,100.12,3.15,'1111122,1111122,1111122' 
COMPS,ioos:station:USF.COMPS:C12:1,2019-04-02T00:35:00Z,27.4980,-83.7220,3.0,1.92,87.68,2.45,'1111122,1111122,1111122' 
COMPS,ioos:station:USF.COMPS:C12:1,2019-04-02T01:05:00Z,27.4980,-83.7220,3.0,2.01,56.58,2.76,'1111122,1111122,1111122' 
COMPS,ioos:station:USF.COMPS:C12:1,2019-04-02T01:35:00Z,27.4980,-83.7220,3.0,2.22,62.55,2.82,'1111122,1111122,1111122' 
COMPS,ioos:station:USF.COMPS:C12:1,2019-04-02T02:05:00Z,27.4980,-83.7220,3.0,2.49,61.92,3.2,'1111122,1111122,1111122' 
COMPS,ioos:station:USF.COMPS:C12:1,2019-04-02T02:35:00Z,27.4980,-83.7220,3.0,3.35,48.42,3.96,'1111122,1111122,1111122' 
COMPS,ioos:station:USF.COMPS:C12:1,2019-04-02T03:05:00Z,27.4980,-83.7220,3.0,3.91,56.62,4.83,'1111122,1111122,1111122' 
COMPS,ioos:station:USF.COMPS:C12:1,2019-04-02T03:35:00Z,27.4980,-83.7220,3.0,4.83,59.94,6.03,'1111122,1111122,1111122' 
COMPS,ioos:station:USF.COMPS:C12:1,2019-04-02T04:05:00Z,27.4980,-83.7220,3.0,4.34,58.58,5.36,'1111122,1111122,1111122' 
COMPS,ioos:station:USF.COMPS:C12:1,2019-04-02T04:35:00Z,27.4980,-83.7220,3.0,5.11,67.85,6.1,'1111122,1111122,1111122' 
COMPS,ioos:station:USF.COMPS:C12:1,2019-04-02T05:05:00Z,27.4980,-83.7220,3.0,5.0,78.55,6.14,'1111122,1111122,1111122' 
COMPS,ioos:station:USF.COMPS:C12:1,2019-04-02T05:35:00Z,27.4980,-83.7220,3.0,4.64,77.91,5.72,'1111122,1111122,1111122' 
COMPS,ioos:station:USF.COMPS:C12:1,2019-04-02T06:05:00Z,27.4980,-83.7220,3.0,4.9,87.39,5.77,'1111122,1111122,1111122' 
COMPS,ioos:station:USF.COMPS:C12:1,2019-04-02T06:35:00Z,27.4980,-83.7220,3.0,5.37,109.76,6.53,'1111122,1111122,1111122' 
COMPS,ioos:station:USF.COMPS:C12:1,2019-04-02T07:05:00Z,27.4980,-83.7220,3.0,5.51,126.45,6.65,'1111122,1111122,1111122' 
COMPS,ioos:station:USF.COMPS:C12:1,2019-04-02T07:35:00Z,27.4980,-83.7220,3.0,4.87,133.91,6.27,'1111122,1111122,1111122' 
COMPS,ioos:station:USF.COMPS:C12:1,2019-04-02T08:05:00Z,27.4980,-83.7220,3.0,4.1,135.56,5.47,'1111122,1111122,1111122' 
COMPS,ioos:station:USF.COMPS:C12:1,2019-04-02T08:35:00Z,27.4980,-83.7220,3.0,3.25,149.53,4.09,'1111122,1111122,1111122' 
COMPS,ioos:station:USF.COMPS:C12:1,2019-04-02T09:05:00Z,27.4980,-83.7220,3.0,2.53,163.49,3.23,'1111122,1111122,1111122' 
COMPS,ioos:station:USF.COMPS:C12:1,2019-04-02T09:35:00Z,27.4980,-83.7220,3.0,3.13,167.69,3.82,'1111122,1111122,1111122' 
COMPS,ioos:station:USF.COMPS:C12:1,2019-04-02T10:05:00Z,27.4980,-83.7220,3.0,3.26,148.21,3.98,'1111122,1111122,1111122' 
COMPS,ioos:station:USF.COMPS:C12:1,2019-04-02T10:35:00Z,27.4980,-83.7220,3.0,2.64,156.36,3.44,'1111122,1111122,1111122' 
COMPS,ioos:station:USF.COMPS:C12:1,2019-04-02T11:05:00Z,27.4980,-83.7220,3.0,2.52,163.06,3.09,'1111122,1111122,1111122' 
COMPS,ioos:station:USF.COMPS:C12:1,2019-04-02T11:35:00Z,27.4980,-83.7220,3.0,2.11,165.68,2.64,'1111122,1111122,1111122' 
COMPS,ioos:station:USF.COMPS:C12:1,2019-04-02T12:05:00Z,27.4980,-83.7220,3.0,2.42,165.62,3.07,'1111122,1111122,1111122' 
COMPS,ioos:station:USF.COMPS:C12:1,2019-04-02T12:35:00Z,27.4980,-83.7220,3.0,1.52,143.88,2.35,'1111122,1111122,1111122' 
COMPS,ioos:station:USF.COMPS:C12:1,2019-04-02T13:05:00Z,27.4980,-83.7220,3.0,2.17,136.95,3.3,'1111122,1111122,1111122' 
COMPS,ioos:station:USF.COMPS:C12:1,2019-04-02T13:35:00Z,27.4980,-83.7220,3.0,4.37,281.53,7.89,'1111122,1111122,1111122' 
COMPS,ioos:station:USF.COMPS:C12:1,2019-04-02T14:05:00Z,27.4980,-83.7220,3.0,8.05,309.76,10.08,'1111122,1111122,1111122' 
COMPS,ioos:station:USF.COMPS:C12:1,2019-04-02T14:35:00Z,27.4980,-83.7220,3.0,6.96,326.15,8.5,'1111122,1111122,1111122' 
COMPS,ioos:station:USF.COMPS:C12:1,2019-04-02T15:05:00Z,27.4980,-83.7220,3.0,6.32,329.55,7.76,'1111122,1111122,1111122' 
COMPS,ioos:station:USF.COMPS:C12:1,2019-04-02T15:35:00Z,27.4980,-83.7220,3.0,8.9,351.53,11.08,'1111122,1111122,1111122' 
COMPS,ioos:station:USF.COMPS:C12:1,2019-04-02T16:05:00Z,27.4980,-83.7220,3.0,9.9,7.66,12.96,'1111122,1111122,1111122' 
COMPS,ioos:station:USF.COMPS:C12:1,2019-04-02T16:35:00Z,27.4980,-83.7220,3.0,9.64,18.61,11.62,'1111122,1111122,1111122' 
COMPS,ioos:station:USF.COMPS:C12:1,2019-04-02T17:05:00Z,27.4980,-83.7220,3.0,8.59,13.24,10.33,'1111122,1111122,1111122' 
COMPS,ioos:station:USF.COMPS:C12:1,2019-04-02T17:35:00Z,27.4980,-83.7220,3.0,8.13,4.27,9.93,'1111122,1111122,1111122' 
COMPS,ioos:station:USF.COMPS:C12:1,2019-04-02T18:05:00Z,27.4980,-83.7220,3.0,8.18,0.8,10.3,'1111122,1111122,1111122' 
COMPS,ioos:station:USF.COMPS:C12:1,2019-04-02T18:35:00Z,27.4980,-83.7220,3.0,7.61,354.24,9.69,'1111122,1111122,1111122' 
COMPS,ioos:station:USF.COMPS:C12:1,2019-04-02T19:05:00Z,27.4980,-83.7220,3.0,-99.0,-99.0,-99.0,'1111122,1111122,1111122' 
COMPS,ioos:station:USF.COMPS:C12:1,2019-04-02T19:35:00Z,27.4980,-83.7220,3.0,-99.0,-99.0,-99.0,'1111122,1111122,1111122' 
COMPS,ioos:station:USF.COMPS:C12:1,2019-04-02T20:05:00Z,27.4980,-83.7220,3.0,6.8,357.52,8.4,'1111122,1111122,1111122' 
COMPS,ioos:station:USF.COMPS:C12:1,2019-04-02T20:35:00Z,27.4980,-83.7220,3.0,7.2,352.29,8.89,'1111122,1111122,1111122' 
COMPS,ioos:station:USF.COMPS:C12:1,2019-04-02T21:05:00Z,27.4980,-83.7220,3.0,7.03,355.53,8.73,'1111122,1111122,1111122' 
COMPS,ioos:station:USF.COMPS:C12:1,2019-04-02T21:35:00Z,27.4980,-83.7220,3.0,6.73,357.83,8.6,'1111122,1111122,1111122' 
COMPS,ioos:station:USF.COMPS:C12:1,2019-04-02T22:05:00Z,27.4980,-83.7220,3.0,7.01,352.53,8.94,'1111122,1111122,1111122' 
COMPS,ioos:station:USF.COMPS:C12:1,2019-04-02T22:35:00Z,27.4980,-83.7220,3.0,7.02,356.23,8.81,'1111122,1111122,1111122' 
COMPS,ioos:station:USF.COMPS:C12:1,2019-04-02T23:05:00Z,27.4980,-83.7220,3.0,7.03,7.93,8.98,'1111122,1111122,1111122' 
COMPS,ioos:station:USF.COMPS:C12:1,2019-04-02T23:35:00Z,27.4980,-83.7220,3.0,6.8,6.6,8.47,'1111122,1111122,1111122' 
COMPS,ioos:station:USF.COMPS:C12:1,2019-04-03T00:05:00Z,27.4980,-83.7220,3.0,6.57,6.12,8.27,'1111122,1111122,1111122' 
COMPS,ioos:station:USF.COMPS:C12:1,2019-04-03T00:35:00Z,27.4980,-83.7220,3.0,5.31,9.53,6.96,'1111122,1111122,1111122' 
COMPS,ioos:station:USF.COMPS:C12:1,2019-04-03T01:05:00Z,27.4980,-83.7220,3.0,5.2,12.55,6.65,'1111122,1111122,1111122' 
COMPS,ioos:station:USF.COMPS:C12:1,2019-04-03T01:35:00Z,27.4980,-83.7220,3.0,5.04,5.52,6.75,'1111122,1111122,1111122' 
COMPS,ioos:station:USF.COMPS:C12:1,2019-04-03T02:05:00Z,27.4980,-83.7220,3.0,4.54,4.43,6.51,'1111122,1111122,1111122' 
COMPS,ioos:station:USF.COMPS:C12:1,2019-04-03T02:35:00Z,27.4980,-83.7220,3.0,5.77,1.32,7.64,'1111122,1111122,1111122' 
COMPS,ioos:station:USF.COMPS:C12:1,2019-04-03T03:05:00Z,27.4980,-83.7220,3.0,6.52,358.58,7.8,'1111122,1111122,1111122' 
COMPS,ioos:station:USF.COMPS:C12:1,2019-04-03T03:35:00Z,27.4980,-83.7220,3.0,7.2,5.58,8.74,'1111122,1111122,1111122' 
COMPS,ioos:station:USF.COMPS:C12:1,2019-04-03T04:05:00Z,27.4980,-83.7220,3.0,6.56,358.26,7.98,'1111122,1111122,1111122' 
COMPS,ioos:station:USF.COMPS:C12:1,2019-04-03T04:35:00Z,27.4980,-83.7220,3.0,6.02,349.72,7.46,'1111122,1111122,1111122' 
COMPS,ioos:station:USF.COMPS:C12:1,2019-04-03T05:05:00Z,27.4980,-83.7220,3.0,6.6,350.3,8.68,'1111122,1111122,1111122' 
COMPS,ioos:station:USF.COMPS:C12:1,2019-04-03T05:35:00Z,27.4980,-83.7220,3.0,6.24,351.62,8.01,'1111122,1111122,1111122' 
COMPS,ioos:station:USF.COMPS:C12:1,2019-04-03T06:05:00Z,27.4980,-83.7220,3.0,7.12,5.25,8.51,'1111122,1111122,1111122' 
COMPS,ioos:station:USF.COMPS:C12:1,2019-04-03T06:35:00Z,27.4980,-83.7220,3.0,7.77,19.92,9.26,'1111122,1111122,1111122' 
COMPS,ioos:station:USF.COMPS:C12:1,2019-04-03T07:05:00Z,27.4980,-83.7220,3.0,7.32,26.26,9.46,'1111122,1111122,1111122' 
COMPS,ioos:station:USF.COMPS:C12:1,2019-04-03T07:35:00Z,27.4980,-83.7220,3.0,7.77,21.84,9.48,'1111122,1111122,1111122' 
COMPS,ioos:station:USF.COMPS:C12:1,2019-04-03T08:05:00Z,27.4980,-83.7220,3.0,7.64,29.88,9.46,'1111122,1111122,1111122' 
COMPS,ioos:station:USF.COMPS:C12:1,2019-04-03T08:35:00Z,27.4980,-83.7220,3.0,7.37,33.09,9.18,'1111122,1111122,1111122' 
COMPS,ioos:station:USF.COMPS:C12:1,2019-04-03T09:05:00Z,27.4980,-83.7220,3.0,7.86,33.97,9.57,'1111122,1111122,1111122' 
COMPS,ioos:station:USF.COMPS:C12:1,2019-04-03T09:35:00Z,27.4980,-83.7220,3.0,7.61,42.21,9.76,'1111122,1111122,1111122' 
COMPS,ioos:station:USF.COMPS:C12:1,2019-04-03T10:05:00Z,27.4980,-83.7220,3.0,7.77,58.09,9.92,'1111122,1111122,1111122' 
COMPS,ioos:station:USF.COMPS:C12:1,2019-04-03T10:35:00Z,27.4980,-83.7220,3.0,9.32,68.38,11.14,'1111122,1111122,1111122' 
COMPS,ioos:station:USF.COMPS:C12:1,2019-04-03T11:05:00Z,27.4980,-83.7220,3.0,9.62,71.9,11.84,'1111122,1111122,1111122' 
COMPS,ioos:station:USF.COMPS:C12:1,2019-04-03T11:35:00Z,27.4980,-83.7220,3.0,9.43,78.52,11.41,'1111122,1111122,1111122' 
COMPS,ioos:station:USF.COMPS:C12:1,2019-04-03T12:05:00Z,27.4980,-83.7220,3.0,8.96,75.39,11.52,'1111122,1111122,1111122' 
COMPS,ioos:station:USF.COMPS:C12:1,2019-04-03T12:35:00Z,27.4980,-83.7220,3.0,8.37,68.87,10.44,'1111122,1111122,1111122' 
COMPS,ioos:station:USF.COMPS:C12:1,2019-04-03T13:05:00Z,27.4980,-83.7220,3.0,8.98,69.39,11.43,'1111122,1111122,1111122' 
COMPS,ioos:station:USF.COMPS:C12:1,2019-04-03T13:35:00Z,27.4980,-83.7220,3.0,9.51,71.39,11.73,'1111122,1111122,1111122' 
COMPS,ioos:station:USF.COMPS:C12:1,2019-04-03T14:05:00Z,27.4980,-83.7220,3.0,9.35,65.31,11.49,'1111122,1111122,1111122' 
COMPS,ioos:station:USF.COMPS:C12:1,2019-04-03T14:35:00Z,27.4980,-83.7220,3.0,9.55,63.46,11.81,'1111122,1111122,1111122' 
COMPS,ioos:station:USF.COMPS:C12:1,2019-04-03T15:05:00Z,27.4980,-83.7220,3.0,9.4,65.15,11.46,'1111122,1111122,1111122' 
COMPS,ioos:station:USF.COMPS:C12:1,2019-04-03T15:35:00Z,27.4980,-83.7220,3.0,9.28,62.83,11.44,'1111122,1111122,1111122' 
COMPS,ioos:station:USF.COMPS:C12:1,2019-04-03T16:05:00Z,27.4980,-83.7220,3.0,9.35,56.43,11.02,'1111122,1111122,1111122' 
COMPS,ioos:station:USF.COMPS:C12:1,2019-04-03T16:35:00Z,27.4980,-83.7220,3.0,8.28,52.06,10.49,'1111122,1111122,1111122' 
COMPS,ioos:station:USF.COMPS:C12:1,2019-04-03T17:05:00Z,27.4980,-83.7220,3.0,7.8,60.33,9.32,'1111122,1111122,1111122' 
COMPS,ioos:station:USF.COMPS:C12:1,2019-04-03T17:35:00Z,27.4980,-83.7220,3.0,6.97,59.19,8.73,'1111122,1111122,1111122' 
COMPS,ioos:station:USF.COMPS:C12:1,2019-04-03T18:05:00Z,27.4980,-83.7220,3.0,6.33,56.8,7.9,'1111122,1111122,1111122' 
COMPS,ioos:station:USF.COMPS:C12:1,2019-04-03T18:35:00Z,27.4980,-83.7220,3.0,6.31,61.76,7.9,'1111122,1111122,1111122' 
COMPS,ioos:station:USF.COMPS:C12:1,2019-04-03T19:05:00Z,27.4980,-83.7220,3.0,6.16,54.51,7.47,'1111122,1111122,1111122' 
COMPS,ioos:station:USF.COMPS:C12:1,2019-04-03T19:35:00Z,27.4980,-83.7220,3.0,5.74,45.91,6.91,'1111122,1111122,1111122' 
COMPS,ioos:station:USF.COMPS:C12:1,2019-04-03T20:05:00Z,27.4980,-83.7220,3.0,5.71,42.99,7.25,'1111122,1111122,1111122' 
COMPS,ioos:station:USF.COMPS:C12:1,2019-04-03T20:35:00Z,27.4980,-83.7220,3.0,5.47,38.45,6.98,'1111122,1111122,1111122' 
COMPS,ioos:station:USF.COMPS:C12:1,2019-04-03T21:05:00Z,27.4980,-83.7220,3.0,5.47,36.44,6.94,'1111122,1111122,1111122' 
COMPS,ioos:station:USF.COMPS:C12:1,2019-04-03T21:35:00Z,27.4980,-83.7220,3.0,5.97,25.17,7.09,'1111122,1111122,1111122' 
COMPS,ioos:station:USF.COMPS:C12:1,2019-04-03T22:05:00Z,27.4980,-83.7220,3.0,6.39,26.22,7.67,'1111122,1111122,1111122' 
COMPS,ioos:station:USF.COMPS:C12:1,2019-04-03T22:35:00Z,27.4980,-83.7220,3.0,6.68,23.14,7.92,'1111122,1111122,1111122' 
COMPS,ioos:station:USF.COMPS:C12:1,2019-04-03T23:05:00Z,27.4980,-83.7220,3.0,6.92,23.04,8.13,'1111122,1111122,1111122' 
COMPS,ioos:station:USF.COMPS:C12:1,2019-04-03T23:35:00Z,27.4980,-83.7220,3.0,6.98,22.05,8.14,'1111122,1111122,1111122' 
COMPS,ioos:station:USF.COMPS:C12:1,2019-04-04T00:05:00Z,27.4980,-83.7220,3.0,6.85,25.67,8.07,'1111122,1111122,1111122' 
COMPS,ioos:station:USF.COMPS:C12:1,2019-04-04T00:35:00Z,27.4980,-83.7220,3.0,6.76,36.82,8.19,'1111122,1111122,1111122' 
COMPS,ioos:station:USF.COMPS:C12:1,2019-04-04T01:05:00Z,27.4980,-83.7220,3.0,6.81,39.88,8.1,'1111122,1111122,1111122' 
COMPS,ioos:station:USF.COMPS:C12:1,2019-04-04T01:35:00Z,27.4980,-83.7220,3.0,6.77,36.46,8.2,'1111122,1111122,1111122' 
COMPS,ioos:station:USF.COMPS:C12:1,2019-04-04T02:05:00Z,27.4980,-83.7220,3.0,5.96,38.5,7.35,'1111122,1111122,1111122' 
COMPS,ioos:station:USF.COMPS:C12:1,2019-04-04T02:35:00Z,27.4980,-83.7220,3.0,5.62,39.12,7.0,'1111122,1111122,1111122' 
COMPS,ioos:station:USF.COMPS:C12:1,2019-04-04T03:05:00Z,27.4980,-83.7220,3.0,5.84,40.79,7.4,'1111122,1111122,1111122' 
COMPS,ioos:station:USF.COMPS:C12:1,2019-04-04T03:35:00Z,27.4980,-83.7220,3.0,7.37,51.08,9.28,'1111122,1111122,1111122' 
COMPS,ioos:station:USF.COMPS:C12:1,2019-04-04T04:05:00Z,27.4980,-83.7220,3.0,5.91,62.2,7.44,'1111122,1111122,1111122' 
COMPS,ioos:station:USF.COMPS:C12:1,2019-04-04T04:35:00Z,27.4980,-83.7220,3.0,7.29,89.73,9.92,'1111122,1111122,1111122' 
COMPS,ioos:station:USF.COMPS:C12:1,2019-04-04T05:05:00Z,27.4980,-83.7220,3.0,10.35,103.29,12.67,'1111122,1111122,1111122' 
COMPS,ioos:station:USF.COMPS:C12:1,2019-04-04T05:35:00Z,27.4980,-83.7220,3.0,10.91,103.46,13.65,'1111122,1111122,1111122' 
COMPS,ioos:station:USF.COMPS:C12:1,2019-04-04T06:05:00Z,27.4980,-83.7220,3.0,10.87,106.06,13.11,'1111122,1111122,1111122' 
COMPS,ioos:station:USF.COMPS:C12:1,2019-04-04T06:35:00Z,27.4980,-83.7220,3.0,9.61,107.89,12.43,'1111122,1111122,1111122' 
COMPS,ioos:station:USF.COMPS:C12:1,2019-04-04T07:05:00Z,27.4980,-83.7220,3.0,9.9,108.61,11.87,'1111122,1111122,1111122' 
COMPS,ioos:station:USF.COMPS:C12:1,2019-04-04T07:35:00Z,27.4980,-83.7220,3.0,9.64,107.68,11.22,'1111122,1111122,1111122' 
COMPS,ioos:station:USF.COMPS:C12:1,2019-04-04T08:05:00Z,27.4980,-83.7220,3.0,9.12,104.87,10.99,'1111122,1111122,1111122' 
COMPS,ioos:station:USF.COMPS:C12:1,2019-04-04T08:35:00Z,27.4980,-83.7220,3.0,9.29,108.26,11.36,'1111122,1111122,1111122' 
COMPS,ioos:station:USF.COMPS:C12:1,2019-04-04T09:05:00Z,27.4980,-83.7220,3.0,9.05,106.24,10.95,'1111122,1111122,1111122' 
COMPS,ioos:station:USF.COMPS:C12:1,2019-04-04T09:35:00Z,27.4980,-83.7220,3.0,8.7,105.98,10.72,'1111122,1111122,1111122' 
COMPS,ioos:station:USF.COMPS:C12:1,2019-04-04T10:05:00Z,27.4980,-83.7220,3.0,9.18,106.79,11.63,'1111122,1111122,1111122' 
COMPS,ioos:station:USF.COMPS:C12:1,2019-04-04T10:35:00Z,27.4980,-83.7220,3.0,9.2,106.12,11.22,'1111122,1111122,1111122' 
COMPS,ioos:station:USF.COMPS:C12:1,2019-04-04T11:05:00Z,27.4980,-83.7220,3.0,8.43,105.04,10.3,'1111122,1111122,1111122' 
COMPS,ioos:station:USF.COMPS:C12:1,2019-04-04T11:35:00Z,27.4980,-83.7220,3.0,9.24,106.2,11.29,'1111122,1111122,1111122' 
COMPS,ioos:station:USF.COMPS:C12:1,2019-04-04T12:05:00Z,27.4980,-83.7220,3.0,8.71,106.47,10.77,'1111122,1111122,1111122' 
COMPS,ioos:station:USF.COMPS:C12:1,2019-04-04T12:35:00Z,27.4980,-83.7220,3.0,8.83,106.8,11.11,'1111122,1111122,1111122' 
COMPS,ioos:station:USF.COMPS:C12:1,2019-04-04T13:05:00Z,27.4980,-83.7220,3.0,8.28,105.67,10.12,'1111122,1111122,1111122' 
COMPS,ioos:station:USF.COMPS:C12:1,2019-04-04T13:35:00Z,27.4980,-83.7220,3.0,8.64,106.06,10.55,'1111122,1111122,1111122' 
COMPS,ioos:station:USF.COMPS:C12:1,2019-04-04T14:05:00Z,27.4980,-83.7220,3.0,8.86,102.48,10.33,'1111122,1111122,1111122' 
COMPS,ioos:station:USF.COMPS:C12:1,2019-04-04T14:35:00Z,27.4980,-83.7220,3.0,7.97,99.33,9.74,'1111122,1111122,1111122' 
COMPS,ioos:station:USF.COMPS:C12:1,2019-04-04T15:05:00Z,27.4980,-83.7220,3.0,7.88,100.24,9.71,'1111122,1111122,1111122' 
COMPS,ioos:station:USF.COMPS:C12:1,2019-04-04T15:35:00Z,27.4980,-83.7220,3.0,7.7,105.1,9.48,'1111122,1111122,1111122' 
COMPS,ioos:station:USF.COMPS:C12:1,2019-04-04T16:05:00Z,27.4980,-83.7220,3.0,7.9,105.53,9.67,'1111122,1111122,1111122' 
COMPS,ioos:station:USF.COMPS:C12:1,2019-04-04T16:35:00Z,27.4980,-83.7220,3.0,8.34,106.36,10.04,'1111122,1111122,1111122' 
COMPS,ioos:station:USF.COMPS:C12:1,2019-04-04T17:05:00Z,27.4980,-83.7220,3.0,7.36,107.61,8.95,'1111122,1111122,1111122' 
COMPS,ioos:station:USF.COMPS:C12:1,2019-04-04T17:35:00Z,27.4980,-83.7220,3.0,6.24,110.11,7.47,'1111122,1111122,1111122' 
COMPS,ioos:station:USF.COMPS:C12:1,2019-04-04T18:05:00Z,27.4980,-83.7220,3.0,5.62,110.24,6.78,'1111122,1111122,1111122' 
COMPS,ioos:station:USF.COMPS:C12:1,2019-04-04T18:35:00Z,27.4980,-83.7220,3.0,4.81,102.8,5.94,'1111122,1111122,1111122' 
COMPS,ioos:station:USF.COMPS:C12:1,2019-04-04T19:05:00Z,27.4980,-83.7220,3.0,4.02,97.7,4.92,'1111122,1111122,1111122' 
COMPS,ioos:station:USF.COMPS:C12:1,2019-04-04T19:35:00Z,27.4980,-83.7220,3.0,3.2,97.16,3.92,'1111122,1111122,1111122' 
COMPS,ioos:station:USF.COMPS:C12:1,2019-04-04T20:05:00Z,27.4980,-83.7220,3.0,2.9,93.1,3.71,'1111122,1111122,1111122' 
COMPS,ioos:station:USF.COMPS:C12:1,2019-04-04T20:35:00Z,27.4980,-83.7220,3.0,2.71,97.66,3.34,'1111122,1111122,1111122' 
COMPS,ioos:station:USF.COMPS:C12:1,2019-04-04T21:05:00Z,27.4980,-83.7220,3.0,3.19,90.92,3.83,'1111122,1111122,1111122' 
COMPS,ioos:station:USF.COMPS:C12:1,2019-04-04T21:35:00Z,27.4980,-83.7220,3.0,2.89,98.76,3.8,'1111122,1111122,1111122' 
COMPS,ioos:station:USF.COMPS:C12:1,2019-04-04T22:05:00Z,27.4980,-83.7220,3.0,2.49,113.19,3.28,'1111122,1111122,1111122' 
COMPS,ioos:station:USF.COMPS:C12:1,2019-04-04T22:35:00Z,27.4980,-83.7220,3.0,2.92,113.98,3.83,'1111122,1111122,1111122' 
COMPS,ioos:station:USF.COMPS:C12:1,2019-04-04T23:05:00Z,27.4980,-83.7220,3.0,2.99,116.91,3.85,'1111122,1111122,1111122' 
COMPS,ioos:station:USF.COMPS:C12:1,2019-04-04T23:35:00Z,27.4980,-83.7220,3.0,2.68,116.57,3.39,'1111122,1111122,1111122' 
COMPS,ioos:station:USF.COMPS:C12:1,2019-04-05T00:05:00Z,27.4980,-83.7220,3.0,3.25,122.93,4.02,'1111122,1111122,1111122' 
COMPS,ioos:station:USF.COMPS:C12:1,2019-04-05T00:35:00Z,27.4980,-83.7220,3.0,3.6,120.1,4.32,'1111122,1111122,1111122' 
COMPS,ioos:station:USF.COMPS:C12:1,2019-04-05T01:05:00Z,27.4980,-83.7220,3.0,3.64,119.31,4.38,'1111122,1111122,1111122' 
COMPS,ioos:station:USF.COMPS:C12:1,2019-04-05T01:35:00Z,27.4980,-83.7220,3.0,3.41,127.96,4.12,'1111122,1111122,1111122' 
COMPS,ioos:station:USF.COMPS:C12:1,2019-04-05T02:05:00Z,27.4980,-83.7220,3.0,3.93,133.61,4.81,'1111122,1111122,1111122' 
COMPS,ioos:station:USF.COMPS:C12:1,2019-04-05T02:35:00Z,27.4980,-83.7220,3.0,4.11,124.76,4.91,'1111122,1111122,1111122' 